,,,PA_Meas_PMT16A,,PR_Meas_QMR101_102,,RH_Meas_QMH101,,SR_Meas_QMS101,,TA_Meas_QMH101,,GenWind,,GenWind,
date,time,status,PA,status,PR,status,RH,status,SR,status,TA,status,DirAvg,status,SpdAvg,
2010-03-28, 00:00:04,VALID,1004.6,VALID,0,VALID,95.9484,VALID,0,VALID,24.9106,VALID,351,VALID,0.193359,
2010-03-28, 00:01:04,VALID,1004.58,VALID,0,VALID,95.9484,VALID,0,VALID,24.9106,VALID,351,VALID,0.137109,
2010-03-28, 00:02:04,VALID,1004.55,VALID,0,VALID,95.9484,VALID,0,VALID,24.9106,VALID,351,VALID,0.339063,
2010-03-28, 00:03:04,VALID,1004.55,VALID,0,VALID,95.9408,VALID,0,VALID,24.93,VALID,351,VALID,0.330469,
2010-03-28, 00:04:04,VALID,1004.55,VALID,0,VALID,95.9255,VALID,0,VALID,24.9087,VALID,351,VALID,0.474219,
2010-03-28, 00:05:04,VALID,1004.5,VALID,0,VALID,95.9484,VALID,0,VALID,24.9495,VALID,351,VALID,0.331641,
2010-03-28, 00:06:04,VALID,1004.48,VALID,0,VALID,95.9255,VALID,0,VALID,24.9495,VALID,351,VALID,0.360547,
2010-03-28, 00:07:04,VALID,1004.44,VALID,0,VALID,95.9332,VALID,0,VALID,24.9495,VALID,351,VALID,0.389453,
2010-03-28, 00:08:04,VALID,1004.41,VALID,0,VALID,95.9637,VALID,0,VALID,24.9495,VALID,351,VALID,0.389453,
2010-03-28, 00:09:04,VALID,1004.41,VALID,0,VALID,95.9255,VALID,0,VALID,24.9087,VALID,351,VALID,0.264453,
2010-03-28, 00:10:04,VALID,1004.38,VALID,0,VALID,95.9484,VALID,0,VALID,24.93,VALID,351,VALID,0.276172,
2010-03-28, 00:11:04,VALID,1004.37,VALID,0,VALID,95.9408,VALID,0,VALID,24.93,VALID,351,VALID,0.356641,
2010-03-28, 00:12:04,VALID,1004.35,VALID,0,VALID,95.9332,VALID,0,VALID,24.93,VALID,351,VALID,0.322656,
2010-03-28, 00:13:04,VALID,1004.34,VALID,0,VALID,95.9408,VALID,0,VALID,24.93,VALID,351,VALID,0.362109,
2010-03-28, 00:14:04,VALID,1004.29,VALID,0,VALID,95.9255,VALID,0,VALID,24.93,VALID,351,VALID,0.394141,
2010-03-28, 00:15:04,VALID,1004.34,VALID,0,VALID,95.9332,VALID,0,VALID,24.93,VALID,351,VALID,0.416016,
2010-03-28, 00:16:04,VALID,1004.34,VALID,0,VALID,95.9255,VALID,0,VALID,24.9106,VALID,351,VALID,0.491406,
2010-03-28, 00:17:04,VALID,1004.31,VALID,0,VALID,95.9408,VALID,0,VALID,24.8911,VALID,351,VALID,0.475,
2010-03-28, 00:18:04,VALID,1004.34,VALID,0,VALID,95.9408,VALID,0,VALID,24.9106,VALID,351,VALID,0.394922,
2010-03-28, 00:19:04,VALID,1004.3,VALID,0,VALID,95.9332,VALID,0,VALID,24.8911,VALID,354,VALID,0.626172,
2010-03-28, 00:20:04,VALID,1004.3,VALID,0,VALID,95.9103,VALID,0,VALID,24.8716,VALID,354,VALID,0.485938,
2010-03-28, 00:21:04,VALID,1004.25,VALID,0,VALID,95.9255,VALID,0,VALID,24.893,VALID,354,VALID,0.286719,
2010-03-28, 00:22:04,VALID,1004.24,VALID,0,VALID,95.9103,VALID,0,VALID,24.8911,VALID,354,VALID,0.327734,
2010-03-28, 00:23:04,VALID,1004.23,VALID,0,VALID,95.9408,VALID,0,VALID,24.8911,VALID,354,VALID,0.252734,
2010-03-28, 00:24:04,VALID,1004.2,VALID,0,VALID,95.9332,VALID,0,VALID,24.8911,VALID,354,VALID,0.135156,
2010-03-28, 00:25:04,VALID,1004.19,VALID,0,VALID,95.9179,VALID,0,VALID,24.8911,VALID,354,VALID,0.380469,
2010-03-28, 00:26:04,VALID,1004.21,VALID,0,VALID,95.9255,VALID,0,VALID,24.8911,VALID,354,VALID,0.414063,
2010-03-28, 00:27:04,VALID,1004.21,VALID,0,VALID,95.9332,VALID,0,VALID,24.8911,VALID,354,VALID,0.367188,
2010-03-28, 00:28:04,VALID,1004.17,VALID,0,VALID,95.895,VALID,0,VALID,24.8911,VALID,354,VALID,0.512109,
2010-03-28, 00:29:04,VALID,1004.19,VALID,0,VALID,95.9179,VALID,0,VALID,24.8911,VALID,354,VALID,0.477344,
2010-03-28, 00:30:04,VALID,1004.18,VALID,0,VALID,95.9408,VALID,0,VALID,24.8716,VALID,356,VALID,0.727344,
2010-03-28, 00:31:04,VALID,1004.18,VALID,0,VALID,95.9179,VALID,0,VALID,24.8522,VALID,357,VALID,0.555078,
2010-03-28, 00:32:04,VALID,1004.18,VALID,0,VALID,95.9332,VALID,0,VALID,24.8522,VALID,357,VALID,0.598437,
2010-03-28, 00:33:04,VALID,1004.15,VALID,0,VALID,95.9179,VALID,0,VALID,24.8522,VALID,357,VALID,0.707031,
2010-03-28, 00:34:04,VALID,1004.16,VALID,0,VALID,95.9103,VALID,0,VALID,24.8522,VALID,357,VALID,0.5,
2010-03-28, 00:35:04,VALID,1004.15,VALID,0,VALID,95.9179,VALID,0,VALID,24.8522,VALID,357,VALID,0.482031,
2010-03-28, 00:36:04,VALID,1004.15,VALID,0,VALID,95.9179,VALID,0,VALID,24.8327,VALID,357,VALID,0.496875,
2010-03-28, 00:37:04,VALID,1004.15,VALID,0,VALID,95.9027,VALID,0,VALID,24.8327,VALID,357,VALID,0.578516,
2010-03-28, 00:38:04,VALID,1004.13,VALID,0,VALID,95.9179,VALID,0,VALID,24.8132,VALID,358,VALID,0.642187,
2010-03-28, 00:39:04,VALID,1004.14,VALID,0,VALID,95.9332,VALID,0,VALID,24.8132,VALID,358,VALID,0.560547,
2010-03-28, 00:40:04,VALID,1004.12,VALID,0,VALID,95.9179,VALID,0,VALID,24.854,VALID,358,VALID,0.594922,
2010-03-28, 00:41:04,VALID,1004.11,VALID,0,VALID,95.9179,VALID,0,VALID,24.8132,VALID,358,VALID,0.487109,
2010-03-28, 00:42:04,VALID,1004.1,VALID,0,VALID,95.9332,VALID,0,VALID,24.8132,VALID,358,VALID,0.456641,
2010-03-28, 00:43:04,VALID,1004.11,VALID,0,VALID,95.9332,VALID,0,VALID,24.7937,VALID,358,VALID,0.603906,
2010-03-28, 00:44:04,VALID,1004.13,VALID,0,VALID,95.9332,VALID,0,VALID,24.7743,VALID,358,VALID,0.689844,
2010-03-28, 00:45:04,VALID,1004.16,VALID,0,VALID,95.9332,VALID,0,VALID,24.7743,VALID,358,VALID,0.6625,
2010-03-28, 00:46:04,VALID,1004.13,VALID,0,VALID,95.9332,VALID,0,VALID,24.7548,VALID,358,VALID,0.615625,
2010-03-28, 00:47:04,VALID,1004.13,VALID,0,VALID,95.9332,VALID,0,VALID,24.7548,VALID,358,VALID,0.651953,
2010-03-28, 00:48:04,VALID,1004.14,VALID,0,VALID,95.9179,VALID,0,VALID,24.8151,VALID,358,VALID,0.630469,
2010-03-28, 00:49:04,VALID,1004.17,VALID,0,VALID,95.9103,VALID,0,VALID,24.7956,VALID,358,VALID,0.507031,
2010-03-28, 00:50:04,VALID,1004.14,VALID,0,VALID,95.9332,VALID,0,VALID,24.7937,VALID,358,VALID,0.582031,
2010-03-28, 00:51:04,VALID,1004.13,VALID,0,VALID,95.9332,VALID,0,VALID,24.7956,VALID,358,VALID,0.562891,
2010-03-28, 00:52:04,VALID,1004.14,VALID,0,VALID,95.9484,VALID,0,VALID,24.7743,VALID,358,VALID,0.376953,
2010-03-28, 00:53:04,VALID,1004.15,VALID,0,VALID,95.9713,VALID,0,VALID,24.7548,VALID,358,VALID,0.367188,
2010-03-28, 00:54:04,VALID,1004.14,VALID,0,VALID,95.9561,VALID,0,VALID,24.7353,VALID,358,VALID,0.387891,
2010-03-28, 00:55:04,VALID,1004.13,VALID,0,VALID,95.9408,VALID,0,VALID,24.7567,VALID,358,VALID,0.420703,
2010-03-28, 00:56:04,VALID,1004.13,VALID,0,VALID,95.9637,VALID,0,VALID,24.7548,VALID,358,VALID,0.262109,
2010-03-28, 00:57:04,VALID,1004.15,VALID,0,VALID,95.9561,VALID,0,VALID,24.7761,VALID,358,VALID,0.419922,
2010-03-28, 00:58:04,VALID,1004.13,VALID,0,VALID,95.9179,VALID,0,VALID,24.7743,VALID,358,VALID,0.287109,
2010-03-28, 00:59:04,VALID,1004.13,VALID,0,VALID,95.9408,VALID,0,VALID,24.7743,VALID,358,VALID,0.335156,
2010-03-28, 01:00:04,VALID,1004.13,VALID,0,VALID,95.9637,VALID,0,VALID,24.7937,VALID,358,VALID,0.305469,
2010-03-28, 01:01:04,VALID,1004.1,VALID,0,VALID,95.9713,VALID,0,VALID,24.7937,VALID,358,VALID,0.385547,
2010-03-28, 01:02:04,VALID,1004.08,VALID,0,VALID,95.9713,VALID,0,VALID,24.7743,VALID,358,VALID,0.381641,
2010-03-28, 01:03:04,VALID,1004.06,VALID,0,VALID,95.9713,VALID,0,VALID,24.7743,VALID,358,VALID,0.261719,
2010-03-28, 01:04:04,VALID,1004.06,VALID,0,VALID,95.9484,VALID,0,VALID,24.7743,VALID,358,VALID,0.201172,
2010-03-28, 01:05:04,VALID,1004.01,VALID,0,VALID,95.9484,VALID,0,VALID,24.7937,VALID,358,VALID,0.0921875,
2010-03-28, 01:06:04,VALID,1004.02,VALID,0,VALID,95.9484,VALID,0,VALID,24.7743,VALID,358,VALID,0,
2010-03-28, 01:07:04,VALID,1003.95,VALID,0,VALID,95.9713,VALID,0,VALID,24.7743,VALID,358,VALID,0.00507812,
2010-03-28, 01:08:04,VALID,1003.97,VALID,0,VALID,95.9942,VALID,0,VALID,24.7548,VALID,358,VALID,0.201953,
2010-03-28, 01:09:04,VALID,1003.92,VALID,0,VALID,95.9561,VALID,0,VALID,24.7548,VALID,358,VALID,0.333203,
2010-03-28, 01:10:04,VALID,1003.89,VALID,0,VALID,95.9942,VALID,0,VALID,24.7548,VALID,358,VALID,0.308984,
2010-03-28, 01:11:04,VALID,1003.86,VALID,0,VALID,95.9942,VALID,0,VALID,24.7548,VALID,358,VALID,0.165234,
2010-03-28, 01:12:04,VALID,1003.89,VALID,0,VALID,95.9866,VALID,0,VALID,24.7548,VALID,358,VALID,0.169141,
2010-03-28, 01:13:04,VALID,1003.84,VALID,0,VALID,95.9866,VALID,0,VALID,24.7548,VALID,358,VALID,0.308594,
2010-03-28, 01:14:04,VALID,1003.84,VALID,0,VALID,95.9866,VALID,0,VALID,24.7548,VALID,358,VALID,0.204688,
2010-03-28, 01:15:04,VALID,1003.81,VALID,0,VALID,95.9713,VALID,0,VALID,24.7548,VALID,358,VALID,0.2,
2010-03-28, 01:16:04,VALID,1003.79,VALID,0,VALID,95.9713,VALID,0,VALID,24.7353,VALID,358,VALID,0.258203,
2010-03-28, 01:17:04,VALID,1003.81,VALID,0,VALID,95.9789,VALID,0,VALID,24.7353,VALID,358,VALID,0.25,
2010-03-28, 01:18:04,VALID,1003.77,VALID,0,VALID,95.9942,VALID,0,VALID,24.7353,VALID,358,VALID,0.247656,
2010-03-28, 01:19:04,VALID,1003.77,VALID,0,VALID,95.9789,VALID,0,VALID,24.714,VALID,358,VALID,0.364062,
2010-03-28, 01:20:04,VALID,1003.73,VALID,0,VALID,95.9866,VALID,0,VALID,24.7353,VALID,358,VALID,0.309766,
2010-03-28, 01:21:04,VALID,1003.72,VALID,0,VALID,95.9789,VALID,0,VALID,24.714,VALID,358,VALID,0,
2010-03-28, 01:22:04,VALID,1003.7,VALID,0,VALID,95.9942,VALID,0,VALID,24.7353,VALID,358,VALID,0,
2010-03-28, 01:23:04,VALID,1003.68,VALID,0,VALID,95.9942,VALID,0,VALID,24.7159,VALID,358,VALID,0,
2010-03-28, 01:24:04,VALID,1003.68,VALID,0,VALID,95.9713,VALID,0,VALID,24.6945,VALID,358,VALID,0.140625,
2010-03-28, 01:25:04,VALID,1003.7,VALID,0,VALID,96.0171,VALID,0,VALID,24.6964,VALID,358,VALID,0,
2010-03-28, 01:26:04,VALID,1003.69,VALID,0,VALID,95.9789,VALID,0,VALID,24.675,VALID,358,VALID,0,
2010-03-28, 01:27:04,VALID,1003.69,VALID,0,VALID,95.9866,VALID,0,VALID,24.6964,VALID,358,VALID,0,
2010-03-28, 01:28:04,VALID,1003.71,VALID,0,VALID,96.0018,VALID,0,VALID,24.6945,VALID,358,VALID,0,
2010-03-28, 01:29:04,VALID,1003.72,VALID,0,VALID,95.9866,VALID,0,VALID,24.6964,VALID,358,VALID,0.102734,
2010-03-28, 01:30:04,VALID,1003.68,VALID,0,VALID,95.9789,VALID,0,VALID,24.7159,VALID,358,VALID,0.408594,
2010-03-28, 01:31:04,VALID,1003.66,VALID,0,VALID,95.9942,VALID,0,VALID,24.6769,VALID,358,VALID,0.562891,
2010-03-28, 01:32:04,VALID,1003.64,VALID,0,VALID,95.9942,VALID,0,VALID,24.6769,VALID,358,VALID,0.622266,
2010-03-28, 01:33:04,VALID,1003.6,VALID,0,VALID,96.0095,VALID,0,VALID,24.6574,VALID,358,VALID,0.492578,
2010-03-28, 01:34:04,VALID,1003.58,VALID,0,VALID,96.0171,VALID,0,VALID,24.6574,VALID,358,VALID,0.553516,
2010-03-28, 01:35:04,VALID,1003.58,VALID,0,VALID,96.0171,VALID,0,VALID,24.6185,VALID,358,VALID,0.5875,
2010-03-28, 01:36:04,VALID,1003.53,VALID,0,VALID,96.0171,VALID,0,VALID,24.6185,VALID,358,VALID,0.513281,
2010-03-28, 01:37:04,VALID,1003.58,VALID,0,VALID,96.0247,VALID,0,VALID,24.599,VALID,358,VALID,0.389453,
2010-03-28, 01:38:04,VALID,1003.56,VALID,0,VALID,96.0247,VALID,0,VALID,24.6185,VALID,358,VALID,0.35,
2010-03-28, 01:39:04,VALID,1003.55,VALID,0,VALID,96.0171,VALID,0,VALID,24.599,VALID,358,VALID,0.327344,
2010-03-28, 01:40:04,VALID,1003.53,VALID,0,VALID,96.0247,VALID,0,VALID,24.6185,VALID,358,VALID,0.0957031,
2010-03-28, 01:41:04,VALID,1003.53,VALID,0,VALID,96.0018,VALID,0,VALID,24.6185,VALID,358,VALID,0,
2010-03-28, 01:42:04,VALID,1003.56,VALID,0,VALID,96.0171,VALID,0,VALID,24.638,VALID,358,VALID,0,
2010-03-28, 01:43:04,VALID,1003.54,VALID,0,VALID,96.0247,VALID,0,VALID,24.6574,VALID,358,VALID,0,
2010-03-28, 01:44:04,VALID,1003.58,VALID,0,VALID,96.0095,VALID,0,VALID,24.6769,VALID,358,VALID,0,
2010-03-28, 01:45:04,VALID,1003.56,VALID,0,VALID,96.0171,VALID,0,VALID,24.6964,VALID,358,VALID,0,
2010-03-28, 01:46:04,VALID,1003.61,VALID,0,VALID,96.0171,VALID,0,VALID,24.6964,VALID,358,VALID,0,
2010-03-28, 01:47:04,VALID,1003.58,VALID,0,VALID,96.0018,VALID,0,VALID,24.6964,VALID,358,VALID,0,
2010-03-28, 01:48:04,VALID,1003.59,VALID,0,VALID,96.0247,VALID,0,VALID,24.6964,VALID,358,VALID,0,
2010-03-28, 01:49:04,VALID,1003.59,VALID,0,VALID,96.0018,VALID,0,VALID,24.6964,VALID,358,VALID,0,
2010-03-28, 01:50:04,VALID,1003.55,VALID,0,VALID,96.0095,VALID,0,VALID,24.6964,VALID,358,VALID,0,
2010-03-28, 01:51:04,VALID,1003.57,VALID,0,VALID,96.0095,VALID,0,VALID,24.6964,VALID,358,VALID,0,
2010-03-28, 01:52:04,VALID,1003.53,VALID,0,VALID,96.0095,VALID,0,VALID,24.6964,VALID,358,VALID,0,
2010-03-28, 01:53:04,VALID,1003.56,VALID,0,VALID,96.0095,VALID,0,VALID,24.6556,VALID,358,VALID,0,
2010-03-28, 01:54:04,VALID,1003.52,VALID,0,VALID,96.0247,VALID,0,VALID,24.6574,VALID,358,VALID,0,
2010-03-28, 01:55:04,VALID,1003.53,VALID,0,VALID,96.0095,VALID,0,VALID,24.6556,VALID,358,VALID,0,
2010-03-28, 01:56:04,VALID,1003.53,VALID,0,VALID,96.0018,VALID,0,VALID,24.6769,VALID,358,VALID,0,
2010-03-28, 01:57:04,VALID,1003.53,VALID,0,VALID,96.0018,VALID,0,VALID,24.6769,VALID,358,VALID,0,
2010-03-28, 01:58:04,VALID,1003.53,VALID,0,VALID,96.0095,VALID,0,VALID,24.6556,VALID,358,VALID,0,
2010-03-28, 01:59:04,VALID,1003.52,VALID,0,VALID,96.0171,VALID,0,VALID,24.675,VALID,358,VALID,0,
2010-03-28, 02:00:04,VALID,1003.54,VALID,0,VALID,96.0247,VALID,0,VALID,24.6769,VALID,358,VALID,0,
2010-03-28, 02:01:04,VALID,1003.56,VALID,0,VALID,96.0095,VALID,0,VALID,24.6964,VALID,358,VALID,0,
2010-03-28, 02:02:04,VALID,1003.55,VALID,0,VALID,96.0171,VALID,0,VALID,24.6964,VALID,358,VALID,0.252344,
2010-03-28, 02:03:04,VALID,1003.55,VALID,0,VALID,96.0476,VALID,0,VALID,24.6769,VALID,358,VALID,0.210156,
2010-03-28, 02:04:04,VALID,1003.55,VALID,0,VALID,96.0323,VALID,0,VALID,24.6769,VALID,358,VALID,0.288281,
2010-03-28, 02:05:04,VALID,1003.57,VALID,0,VALID,96.0323,VALID,0,VALID,24.6574,VALID,358,VALID,0.410156,
2010-03-28, 02:06:04,VALID,1003.56,VALID,0,VALID,96.04,VALID,0,VALID,24.6166,VALID,358,VALID,0.377344,
2010-03-28, 02:07:04,VALID,1003.56,VALID,0,VALID,96.0476,VALID,0,VALID,24.638,VALID,358,VALID,0.385156,
2010-03-28, 02:08:04,VALID,1003.53,VALID,0,VALID,96.0476,VALID,0,VALID,24.6185,VALID,358,VALID,0.456641,
2010-03-28, 02:09:04,VALID,1003.55,VALID,0,VALID,96.0476,VALID,0,VALID,24.6185,VALID,358,VALID,0.433594,
2010-03-28, 02:10:04,VALID,1003.56,VALID,0,VALID,96.04,VALID,0,VALID,24.6185,VALID,358,VALID,0.419141,
2010-03-28, 02:11:04,VALID,1003.54,VALID,0,VALID,96.04,VALID,0,VALID,24.638,VALID,358,VALID,0.623047,
2010-03-28, 02:12:04,VALID,1003.54,VALID,0,VALID,96.0476,VALID,0,VALID,24.638,VALID,358,VALID,0.452344,
2010-03-28, 02:13:04,VALID,1003.52,VALID,0,VALID,96.0323,VALID,0,VALID,24.6574,VALID,358,VALID,0.190625,
2010-03-28, 02:14:04,VALID,1003.55,VALID,0,VALID,96.0247,VALID,0,VALID,24.6769,VALID,358,VALID,0,
2010-03-28, 02:15:04,VALID,1003.55,VALID,0,VALID,96.0323,VALID,0,VALID,24.6769,VALID,358,VALID,0,
2010-03-28, 02:16:04,VALID,1003.56,VALID,0,VALID,96.0247,VALID,0,VALID,24.6769,VALID,358,VALID,0,
2010-03-28, 02:17:04,VALID,1003.54,VALID,0,VALID,96.0323,VALID,0,VALID,24.6769,VALID,358,VALID,0,
2010-03-28, 02:18:04,VALID,1003.53,VALID,0,VALID,96.0476,VALID,0,VALID,24.6556,VALID,358,VALID,0,
2010-03-28, 02:19:04,VALID,1003.52,VALID,0,VALID,96.0476,VALID,0,VALID,24.6769,VALID,358,VALID,0,
2010-03-28, 02:20:04,VALID,1003.56,VALID,0,VALID,96.0323,VALID,0,VALID,24.6964,VALID,358,VALID,0,
2010-03-28, 02:21:04,VALID,1003.51,VALID,0,VALID,96.0552,VALID,0,VALID,24.6769,VALID,358,VALID,0,
2010-03-28, 02:22:04,VALID,1003.52,VALID,0,VALID,96.04,VALID,0,VALID,24.675,VALID,358,VALID,0,
2010-03-28, 02:23:04,VALID,1003.5,VALID,0,VALID,96.0552,VALID,0,VALID,24.6945,VALID,358,VALID,0,
2010-03-28, 02:24:04,VALID,1003.53,VALID,0,VALID,96.04,VALID,0,VALID,24.7353,VALID,358,VALID,0,
2010-03-28, 02:25:04,VALID,1003.51,VALID,0,VALID,96.0247,VALID,0,VALID,24.7353,VALID,358,VALID,0,
2010-03-28, 02:26:04,VALID,1003.5,VALID,0,VALID,96.0476,VALID,0,VALID,24.7159,VALID,358,VALID,0,
2010-03-28, 02:27:04,VALID,1003.48,VALID,0,VALID,96.0476,VALID,0,VALID,24.7159,VALID,358,VALID,0,
2010-03-28, 02:28:04,VALID,1003.46,VALID,0,VALID,96.0629,VALID,0,VALID,24.675,VALID,358,VALID,0,
2010-03-28, 02:29:04,VALID,1003.48,VALID,0,VALID,96.0552,VALID,0,VALID,24.6964,VALID,358,VALID,0,
2010-03-28, 02:30:04,VALID,1003.46,VALID,0,VALID,96.0629,VALID,0,VALID,24.675,VALID,358,VALID,0,
2010-03-28, 02:31:04,VALID,1003.44,VALID,0,VALID,96.0552,VALID,0,VALID,24.675,VALID,358,VALID,0,
2010-03-28, 02:32:04,VALID,1003.46,VALID,0,VALID,96.0552,VALID,0,VALID,24.7159,VALID,358,VALID,0,
2010-03-28, 02:33:04,VALID,1003.42,VALID,0,VALID,96.0552,VALID,0,VALID,24.7372,VALID,358,VALID,0,
2010-03-28, 02:34:04,VALID,1003.41,VALID,0,VALID,96.0476,VALID,0,VALID,24.7353,VALID,358,VALID,0,
2010-03-28, 02:35:04,VALID,1003.39,VALID,0,VALID,96.0476,VALID,0,VALID,24.6945,VALID,358,VALID,0,
2010-03-28, 02:36:04,VALID,1003.41,VALID,0,VALID,96.0552,VALID,0,VALID,24.6945,VALID,358,VALID,0,
2010-03-28, 02:37:04,VALID,1003.38,VALID,0,VALID,96.04,VALID,0,VALID,24.7372,VALID,358,VALID,0,
2010-03-28, 02:38:04,VALID,1003.37,VALID,0,VALID,96.0705,VALID,0,VALID,24.7567,VALID,358,VALID,0,
2010-03-28, 02:39:04,VALID,1003.35,VALID,0,VALID,96.04,VALID,0,VALID,24.7548,VALID,358,VALID,0,
2010-03-28, 02:40:05,VALID,1003.33,VALID,0,VALID,96.0476,VALID,0,VALID,24.7548,VALID,358,VALID,0,
2010-03-28, 02:41:05,VALID,1003.3,VALID,0,VALID,96.0629,VALID,0,VALID,24.7353,VALID,358,VALID,0,
2010-03-28, 02:42:05,VALID,1003.32,VALID,0,VALID,96.0552,VALID,0,VALID,24.7353,VALID,358,VALID,0,
2010-03-28, 02:43:05,VALID,1003.27,VALID,0,VALID,96.0552,VALID,0,VALID,24.7353,VALID,358,VALID,0,
2010-03-28, 02:44:05,VALID,1003.31,VALID,0,VALID,96.0629,VALID,0,VALID,24.7353,VALID,358,VALID,0,
2010-03-28, 02:45:05,VALID,1003.28,VALID,0,VALID,96.0705,VALID,0,VALID,24.7335,VALID,358,VALID,0,
2010-03-28, 02:46:05,VALID,1003.29,VALID,0,VALID,96.0781,VALID,0,VALID,24.714,VALID,358,VALID,0,
2010-03-28, 02:47:05,VALID,1003.31,VALID,0,VALID,96.0629,VALID,0,VALID,24.7353,VALID,358,VALID,0,
2010-03-28, 02:48:05,VALID,1003.32,VALID,0,VALID,96.0781,VALID,0,VALID,24.7159,VALID,358,VALID,0,
2010-03-28, 02:49:05,VALID,1003.31,VALID,0,VALID,96.0629,VALID,0,VALID,24.7159,VALID,358,VALID,0,
2010-03-28, 02:50:05,VALID,1003.31,VALID,0,VALID,96.0629,VALID,0,VALID,24.6945,VALID,358,VALID,0,
2010-03-28, 02:51:05,VALID,1003.3,VALID,0,VALID,96.0629,VALID,0,VALID,24.7159,VALID,358,VALID,0,
2010-03-28, 02:52:05,VALID,1003.31,VALID,0,VALID,96.0629,VALID,0,VALID,24.7353,VALID,358,VALID,0,
2010-03-28, 02:53:05,VALID,1003.3,VALID,0,VALID,96.0629,VALID,0,VALID,24.7335,VALID,358,VALID,0,
2010-03-28, 02:54:05,VALID,1003.26,VALID,0,VALID,96.0552,VALID,0,VALID,24.7548,VALID,358,VALID,0,
2010-03-28, 02:55:05,VALID,1003.26,VALID,0,VALID,96.0476,VALID,0,VALID,24.7335,VALID,358,VALID,0.213672,
2010-03-28, 02:56:05,VALID,1003.28,VALID,0,VALID,96.0705,VALID,0,VALID,24.7548,VALID,358,VALID,0.533203,
2010-03-28, 02:57:05,VALID,1003.23,VALID,0,VALID,96.0705,VALID,0,VALID,24.7353,VALID,358,VALID,0.408594,
2010-03-28, 02:58:05,VALID,1003.24,VALID,0,VALID,96.0705,VALID,0,VALID,24.7353,VALID,358,VALID,0.497656,
2010-03-28, 02:59:05,VALID,1003.25,VALID,0,VALID,96.0705,VALID,0,VALID,24.714,VALID,358,VALID,0.444531,
2010-03-28, 03:00:05,VALID,1003.23,VALID,0,VALID,96.0857,VALID,0,VALID,24.6945,VALID,358,VALID,0.287891,
2010-03-28, 03:01:05,VALID,1003.24,VALID,0,VALID,96.0857,VALID,0.100563,VALID,24.6964,VALID,358,VALID,0.09375,
2010-03-28, 03:02:05,VALID,1003.24,VALID,0,VALID,96.0934,VALID,0,VALID,24.7159,VALID,358,VALID,0,
2010-03-28, 03:03:05,VALID,1003.27,VALID,0,VALID,96.0934,VALID,0.100563,VALID,24.6945,VALID,358,VALID,0,
2010-03-28, 03:04:05,VALID,1003.29,VALID,0,VALID,96.0781,VALID,0,VALID,24.714,VALID,358,VALID,0,
2010-03-28, 03:05:05,VALID,1003.27,VALID,0,VALID,96.0857,VALID,0.100563,VALID,24.714,VALID,358,VALID,0,
2010-03-28, 03:06:05,VALID,1003.3,VALID,0,VALID,96.0857,VALID,0,VALID,24.7743,VALID,358,VALID,0,
2010-03-28, 03:07:05,VALID,1003.32,VALID,0,VALID,96.0629,VALID,0.100563,VALID,24.7743,VALID,358,VALID,0,
2010-03-28, 03:08:05,VALID,1003.3,VALID,0,VALID,96.0552,VALID,0,VALID,24.7937,VALID,358,VALID,0,
2010-03-28, 03:09:05,VALID,1003.31,VALID,0,VALID,96.0476,VALID,0,VALID,24.7919,VALID,358,VALID,0.0136719,
2010-03-28, 03:10:05,VALID,1003.26,VALID,0,VALID,96.0552,VALID,0.100563,VALID,24.8113,VALID,358,VALID,0,
2010-03-28, 03:11:05,VALID,1003.25,VALID,0,VALID,96.0781,VALID,0,VALID,24.8113,VALID,358,VALID,0.207813,
2010-03-28, 03:12:05,VALID,1003.23,VALID,0,VALID,96.0629,VALID,0.100563,VALID,24.8327,VALID,358,VALID,0,
2010-03-28, 03:13:05,VALID,1003.22,VALID,0,VALID,96.0705,VALID,0,VALID,24.8327,VALID,358,VALID,0,
2010-03-28, 03:14:05,VALID,1003.21,VALID,0,VALID,96.0857,VALID,0,VALID,24.8503,VALID,358,VALID,0,
2010-03-28, 03:15:05,VALID,1003.24,VALID,0,VALID,96.0705,VALID,0,VALID,24.8522,VALID,358,VALID,0,
2010-03-28, 03:16:05,VALID,1003.22,VALID,0,VALID,96.0705,VALID,0.100563,VALID,24.8503,VALID,358,VALID,0,
2010-03-28, 03:17:05,VALID,1003.25,VALID,0,VALID,96.0629,VALID,0.100563,VALID,24.8522,VALID,358,VALID,0,
2010-03-28, 03:18:05,VALID,1003.23,VALID,0,VALID,96.0781,VALID,0,VALID,24.8327,VALID,358,VALID,0.267188,
2010-03-28, 03:19:05,VALID,1003.23,VALID,0,VALID,96.0781,VALID,0,VALID,24.8132,VALID,358,VALID,0.111328,
2010-03-28, 03:20:05,VALID,1003.21,VALID,0,VALID,96.0781,VALID,0.100563,VALID,24.8327,VALID,358,VALID,0,
2010-03-28, 03:21:05,VALID,1003.2,VALID,0,VALID,96.0705,VALID,0.100563,VALID,24.8327,VALID,358,VALID,0,
2010-03-28, 03:22:05,VALID,1003.22,VALID,0,VALID,96.0934,VALID,0,VALID,24.8113,VALID,358,VALID,0,
2010-03-28, 03:23:05,VALID,1003.22,VALID,0,VALID,96.0781,VALID,0,VALID,24.8522,VALID,358,VALID,0,
2010-03-28, 03:24:05,VALID,1003.29,VALID,0,VALID,96.0857,VALID,0.100563,VALID,24.893,VALID,341,VALID,0.441016,
2010-03-28, 03:25:05,VALID,1003.37,VALID,0,VALID,96.0705,VALID,0,VALID,24.8697,VALID,233,VALID,1.2332,
2010-03-28, 03:26:05,VALID,1003.33,VALID,0,VALID,96.0705,VALID,0,VALID,24.9106,VALID,209,VALID,3.02969,
2010-03-28, 03:27:05,VALID,1003.32,VALID,0,VALID,96.0629,VALID,0.100563,VALID,24.9495,VALID,253,VALID,0.669922,
2010-03-28, 03:28:05,VALID,1003.34,VALID,0,VALID,96.0781,VALID,0.100563,VALID,24.9495,VALID,256,VALID,0.455469,
2010-03-28, 03:29:05,VALID,1003.37,VALID,0,VALID,96.0705,VALID,0,VALID,24.9495,VALID,230,VALID,1.42852,
2010-03-28, 03:30:05,VALID,1003.35,VALID,0,VALID,96.0781,VALID,0,VALID,24.969,VALID,337,VALID,1.32187,
2010-03-28, 03:31:05,VALID,1003.36,VALID,0,VALID,96.0705,VALID,0,VALID,24.9476,VALID,307,VALID,2.09023,
2010-03-28, 03:32:05,VALID,1003.36,VALID,0,VALID,96.0781,VALID,0.100563,VALID,24.9885,VALID,256,VALID,1.2207,
2010-03-28, 03:33:05,VALID,1003.35,VALID,0,VALID,96.0857,VALID,0.100563,VALID,24.9671,VALID,294,VALID,1.26133,
2010-03-28, 03:34:05,VALID,1003.4,VALID,0,VALID,96.0781,VALID,0,VALID,25.0469,VALID,303,VALID,1.22617,
2010-03-28, 03:35:05,VALID,1003.41,VALID,0,VALID,96.0629,VALID,0.100563,VALID,25.0858,VALID,270,VALID,1.38008,
2010-03-28, 03:36:05,VALID,1003.38,VALID,0,VALID,96.04,VALID,0,VALID,25.0858,VALID,284,VALID,1.26523,
2010-03-28, 03:37:05,VALID,1003.37,VALID,0,VALID,96.0247,VALID,0.100563,VALID,25.1248,VALID,304,VALID,0.471875,
2010-03-28, 03:38:05,VALID,1003.41,VALID,0.5,VALID,96.0018,VALID,0.100563,VALID,25.1442,VALID,268,VALID,0.703516,
2010-03-28, 03:39:05,VALID,1003.42,VALID,0,VALID,95.9713,VALID,0,VALID,25.1034,VALID,245,VALID,1.05,
2010-03-28, 03:40:05,VALID,1003.45,VALID,0,VALID,95.9408,VALID,0,VALID,25.0644,VALID,287,VALID,0.401172,
2010-03-28, 03:41:05,VALID,1003.42,VALID,0.5,VALID,95.8721,VALID,0.100563,VALID,25.045,VALID,349,VALID,0.713281,
2010-03-28, 03:42:05,VALID,1003.45,VALID,0,VALID,95.7959,VALID,0,VALID,25.0469,VALID,284,VALID,0.799219,
2010-03-28, 03:43:05,VALID,1003.39,VALID,0.5,VALID,95.7653,VALID,0,VALID,25.0079,VALID,348,VALID,0.665234,
2010-03-28, 03:44:05,VALID,1003.38,VALID,0.5,VALID,95.7043,VALID,0,VALID,24.969,VALID,356,VALID,0.141797,
2010-03-28, 03:45:05,VALID,1003.41,VALID,0,VALID,95.6585,VALID,0,VALID,24.969,VALID,225,VALID,0.442969,
2010-03-28, 03:46:05,VALID,1003.38,VALID,0,VALID,95.6204,VALID,0.100563,VALID,24.93,VALID,292,VALID,0.941016,
2010-03-28, 03:47:05,VALID,1003.38,VALID,0,VALID,95.5899,VALID,0,VALID,24.93,VALID,209,VALID,0.307031,
2010-03-28, 03:48:05,VALID,1003.32,VALID,0,VALID,95.5746,VALID,0,VALID,24.9319,VALID,315,VALID,1.28906,
2010-03-28, 03:49:05,VALID,1003.36,VALID,0,VALID,95.5517,VALID,0,VALID,24.9106,VALID,245,VALID,0.388672,